Location: Newark
(42.8481°N, 0.4872°E)
Time: 00:20:00
(UTC+00:00)

Transit 2A - Pass Details

Date: 04 November 2020
Orbit: 595 x 963 km, 66.7° (Epoch: 03 December)

Event Time Altitude Azimuth Distance (km) Brightness Sun altitude
Rises 08:03:20 0° 329° (NNW) 3,414 8.8 13.1°
Reaches altitude 10° 08:05:55 10° 330° (NNW) 2,418 8.1 13.5°
Maximum altitude 08:11:28 82° 59° (ENE) 766 6.4 14.3°
Drops below altitude 10° 08:16:24 10° 147° (SSE) 2,155 10.1 15.0°
Sets 08:18:36 0° 148° (SSE) 3,017 10.5 15.3°
